Probability
0 2 4 6 6 4 1 0 0 0 2 4 4 3 3 3 2 1 1 1 1 0 0 0 0 0 0 0 0 0 0 0 0 0 0 0 0 0 0 0 0 0 0
1 3 5 5 4 2 0 0 0 0 2 3 3 3 3 3 2 1 0 0 0 0 0 0 0 0 0 0 0 0 0 0 0 0 0 0 0 0 0 0 0 0 0
2 4 5 3 1 0 0 0 0 0 1 1 2 3 3 3 2 1 0 0 0 0 0 0 0 0 1 1 1 0 0 0 0 0 0 0 0 0 0 0 0 0 0
2 4 3 1 0 0 0 0 0 0 0 1 2 3 2 1 1 2 1 0 0 0 0 0 0 0 1 2 1 0 1 0 0 0 0 0 0 0 0 0 0 0 0
1 2 1 0 0 0 1 1 1 0 0 0 1 1 1 1 1 2 2 1 0 0 0 0 0 0 1 1 1 0 0 0 0 0 0 0 0 0 0 0 0 0 0
0 0 0 0 0 0 1 2 1 0 0 0 0 0 0 0 1 2 2 1 0 0 0 0 0 0 0 0 0 0 0 0 0 0 0 0 0 0 0 0 0 0 0
0 0 0 0 0 0 0 1 1 0 0 0 0 0 0 0 1 2 2 1 0 0 0 0 0 0 0 0 0 0 0 0 0 0 0 0 0 0 0 0 0 0 0
0 0 0 0 0 0 0 0 0 0 0 0 0 0 0 0 1 2 3 1 0 0 0 1 1 1 0 0 0 0 0 0 0 0 0 0 0 0 0 0 0 0 0
0 0 0 0 0 0 0 0 0 0 0 0 0 0 0 0 1 2 2 1 0 0 0 1 2 1 0 0 0 0 0 0 0 0 0 0 0 0 0 0 0 0 0
0 0 0 0 0 0 0 0 0 0 0 0 0 0 0 0 0 1 1 1 0 0 0 1 1 1 0 0 0 0 0 0 0 0 0 0 0 0 0 0 0 0 0
0 0 0 0 0 0 0 0 0 0 0 0 0 0 0 0 0 0 0 0 0 0 0 0 0 0 0 0 0 0 0 0 0 0 0 0 0 0 0 0 0 0 0
0 0 0 0 0 0 0 0 0 0 0 0 0 0 0 0 0 0 0 0 0 0 0 0 0 0 0 0 0 0 0 0 0 0 0 0 0 0 0 0 0 0 0
0 0 0 0 0 0 0 0 0 0 0 0 0 0 0 0 0 0 0 0 0 0 0 0 0 0 0 0 0 0 0 0 0 0 0 0 0 0 0 0 0 0 0
0 0 0 0 0 0 0 0 0 0 0 0 0 0 0 0 0 0 0 0 0 0 0 0 0 0 0 0 0 0 0 0 0 0 0 0 0 0 0 0 0 0 0
0 0 0 0 0 0 0 0 0 0 0 0 0 0 0 0 0 0 0 0 0 0 0 0 0 0 0 0 0 0 0 0 0 0 0 0 0 0 0 0 0 0 0
0 0 0 0 0 0 0 0 0 0 0 0 0 0 0 0 0 0 0 0 0 0 0 0 0 0 0 0 0 0 0 0 0 0 0 0 0 0 0 0 0 0 0
0 0 0 0 0 0 0 0 0 0 0 0 0 0 0 0 0 0 0 0 0 0 0 0 0 0 0 0 0 0 0 0 0 0 0 0 0 0 0 0 0 0 0
0 0 0 0 0 0 0 0 0 0 0 0 0 0 0 0 0 0 0 0 0 0 0 0 0 0 0 0 0 0 0 0 0 0 0 0 0 0 0 0 0 0 0
0 0 0 0 0 0 0 0 0 0 0 0 0 0 0 0 0 0 0 0 0 0 0 0 0 0 0 0 0 0 0 0 0 0 0 0 0 0 0 0 0 0 0
0 0 0 0 0 0 0 0 0 0 0 0 0 0 0 0 0 0 0 0 0 0 0 0 0 0 0 0 0 0 0 0 0 0 0 0 0 0 0 0 0 0 0
0 0 0 0 0 0 0 0 0 0 0 0 0 0 0 0 0 0 0 0 0 0 0 0 0 0 0 0 0 0 0 0 0 0 0 0 0 0 0 0 0 0 0
0 0 0 0 0 0 0 0 0 0 0 0 0 0 0 0 0 0 0 0 0 0 0 0 0 0 0 0 0 0 0 0 0 0 0 0 0 0 0 0 0 0 0
0 0 0 0 0 0 0 0 0 0 0 0 0 0 0 0 0 0 0 0 0 0 0 0 0 0 0 0 0 0 0 0 0 0 0 0 0 0 0 0 0 0 0
0 0 0 0 0 0 0 0 0 0 0 0 0 0 0 0 0 0 0 0 0 0 0 0 0 0 0 0 0 0 0 0 0 0 0 0 0 0 0 0 0 0 0
0 0 0 0 0 0 0 0 0 0 0 0 0 0 0 0 0 0 0 0 0 0 0 0 0 0 0 0 0 0 0 0 0 0 0 0 0 0 0 0 0 0 0
0 0 0 0 0 0 0 0 0 0 0 0 0 0 0 0 0 0 0 0 0 0 0 0 0 0 0 0 0 0 0 0 0 0 0 0 0 0 0 0 0 0 0
Wind_Speed
8 7 5 4 4 4 5 5 5 5 4 4 4 4 4 4 4 5 6 8 7 8 7 6 6 6 6 7 7 6 6 4 5 4 3 1 1 3 3 3 3 4 4
9 8 5 3 4 5 5 5 6 5 4 5 5 4 4 4 5 5 6 7 8 8 8 8 7 7 6 7 7 6 5 4 5 5 5 2 1 2 3 3 4 4 3
8 8 7 5 5 5 5 5 6 5 5 5 4 3 2 2 3 4 5 7 8 9 9 9 8 8 8 8 8 9 8 6 5 5 6 6 5 2 2 3 4 4 3
7 7 7 7 6 6 5 6 7 6 5 5 5 6 5 5 5 5 6 6 8 9 9 9 9 8 7 9 9 9 7 8 7 5 3 3 5 5 3 2 3 4 4
7 8 8 8 6 5 5 6 6 5 5 6 7 7 6 6 4 5 6 7 7 9 9 9 8 8 8 9 10 9 9 7 7 6 4 3 2 3 4 4 3 2 3
8 8 8 7 6 5 5 5 5 5 4 6 7 8 8 6 6 7 7 6 6 6 8 8 8 8 8 9 10 10 11 9 8 6 6 6 5 5 4 4 5 4 3
8 8 9 8 7 7 6 5 5 6 5 6 7 7 8 8 8 8 7 7 6 6 8 8 8 8 8 9 9 9 10 10 10 9 6 6 5 4 4 4 4 2 1
8 8 9 8 8 7 6 6 6 7 6 6 6 6 7 6 6 7 7 8 7 7 8 9 9 9 9 9 9 8 9 9 10 10 9 6 5 5 5 5 5 3 1
9 9 9 9 9 8 8 7 7 7 7 6 6 6 6 6 6 6 6 6 6 6 8 9 9 9 9 9 9 8 9 9 10 9 10 7 5 5 4 4 6 6 4
10 10 10 10 10 9 8 7 6 7 6 5 5 5 6 6 6 6 6 6 6 6 7 8 9 9 9 10 9 8 9 10 9 8 9 8 6 6 5 5 4 4 5
11 11 11 11 10 9 8 7 7 6 5 5 5 5 6 6 5 5 6 5 5 5 7 7 8 8 9 10 9 9 10 11 10 9 10 10 8 7 5 5 5 4 4
10 10 11 10 10 9 8 7 7 6 5 4 4 4 4 3 3 4 5 5 5 5 5 6 7 8 8 9 10 10 10 11 12 11 11 11 8 9 7 6 6 5 4
12 10 10 10 10 9 8 7 7 6 5 4 3 3 3 2 2 3 4 4 4 4 4 5 6 7 8 8 9 10 10 11 12 12 12 11 11 10 8 8 6 5 4
11 10 10 10 10 10 8 7 6 6 5 3 3 3 3 2 3 3 3 3 3 4 4 4 5 6 7 8 9 9 10 10 10 10 11 11 12 12 11 8 8 6 5
11 10 10 10 10 10 10 8 6 6 4 3 2 3 3 2 2 2 3 3 3 3 3 3 4 4 5 6 8 9 10 10 10 9 10 10 12 13 11 9 8 8 6
11 11 10 10 10 10 10 9 7 6 4 3 3 3 3 3 2 2 2 2 2 2 2 3 4 4 4 6 9 9 9 10 10 9 9 9 10 13 14 14 13 12 10
10 10 9 9 9 9 9 8 7 5 4 4 4 3 3 3 3 3 2 2 2 2 2 3 3 4 5 6 7 9 9 9 10 9 9 7 7 11 9 11 11 10 11
9 9 8 9 9 8 8 7 7 5 4 4 4 4 4 4 3 3 2 2 2 2 2 3 3 3 4 4 5 6 8 8 8 8 9 9 8 9 10 9 7 6 6
8 7 7 7 7 7 7 7 7 4 4 4 4 4 4 4 4 3 3 3 3 3 2 2 2 1 2 3 5 6 5 6 7 7 8 9 8 12 14 10 8 6 4
6 6 6 6 6 7 6 6 6 4 5 5 5 4 3 4 4 4 3 3 3 3 3 2 1 2 2 3 4 6 4 5 5 5 7 10 10 13 14 10 9 9 6
7 6 6 6 6 6 5 6 5 5 5 5 4 4 3 3 4 4 3 3 3 3 2 2 2 2 2 2 2 5 4 5 5 4 4 6 10 11 13 11 8 9 8
7 6 6 6 6 4 4 5 5 6 5 4 4 4 4 4 3 3 4 3 2 2 1 1 2 1 1 1 1 3 4 5 5 4 4 5 10 10 11 9 10 12 10
7 6 6 7 6 4 3 5 6 5 5 4 4 4 4 3 3 3 4 3 2 1 1 1 1 2 1 1 1 1 2 4 3 4 5 6 9 9 8 11 12 10 7
7 6 6 6 6 6 5 5 6 4 4 4 4 4 4 4 4 3 2 2 2 1 1 1 1 2 2 1 1 0 2 3 4 4 6 7 7 6 7 8 7 5 5
6 5 5 6 7 7 7 6 5 4 4 5 5 4 3 3 3 3 2 2 2 2 2 2 2 2 2 3 3 2 2 2 3 4 4 3 3 3 4 4 4 4 5
6 6 6 6 7 7 7 6 5 4 4 4 4 3 3 3 2 2 4 4 3 5 5 5 4 3 3 3 3 2 2 3 7 5 4 4 4 4 5 5 5 4 5
Wind_Direction
299 300 282 281 264 257 253 251 249 253 241 203 191 207 204 209 212 213 211 209 207 204 198 196 190 190 192 191 185 172 174 176 162 140 133 98 181 193 200 193 190 196 193
317 316 310 292 273 265 260 254 247 245 241 218 201 208 208 210 215 213 214 211 210 207 203 198 195 195 193 189 188 175 169 175 173 153 143 148 238 233 204 192 196 199 187
303 310 306 291 276 268 259 261 258 254 244 223 205 212 208 217 214 216 219 213 214 212 209 204 200 200 196 194 190 185 177 178 189 177 160 163 196 188 209 201 195 191 188
305 306 307 297 279 267 263 259 258 253 246 219 202 202 210 225 229 223 224 219 217 214 210 205 202 202 203 197 193 191 187 177 183 191 194 174 156 157 175 208 196 192 196
313 308 304 293 284 272 269 267 265 260 250 225 212 207 216 224 227 228 225 223 221 216 211 206 205 206 206 200 195 192 190 189 187 183 171 165 157 147 154 191 196 200 205
321 314 309 305 305 297 283 275 267 265 253 235 221 213 218 222 224 229 228 226 222 217 213 210 207 210 207 200 197 198 195 195 193 191 184 174 169 177 163 178 192 203 206
319 320 320 319 313 306 292 280 268 268 260 243 233 223 222 217 221 227 228 230 223 220 215 214 211 210 211 204 197 199 199 195 194 198 200 196 188 172 160 157 173 184 197
319 320 319 318 312 303 296 287 278 269 262 248 243 240 236 225 226 227 228 227 225 223 215 213 214 213 211 207 199 201 204 198 198 201 198 194 193 180 171 163 159 170 217
323 323 322 321 316 311 302 289 283 281 270 254 249 247 239 230 232 233 235 232 229 227 218 215 215 212 210 206 201 204 206 198 199 201 200 195 193 185 181 170 166 167 194
326 326 325 323 318 314 308 301 288 281 278 265 259 257 246 232 229 228 231 236 234 228 223 218 215 211 212 207 204 203 205 201 200 197 196 194 191 185 181 175 174 173 179
320 322 322 322 319 319 318 315 306 297 288 273 264 264 253 240 234 227 226 230 236 230 227 220 216 212 213 206 203 207 202 203 200 196 195 194 185 185 182 175 172 177 172
318 320 322 325 327 322 318 319 319 309 298 287 276 270 257 246 236 232 229 227 229 232 234 225 219 214 214 208 202 206 205 201 199 197 193 194 182 185 182 180 179 183 180
321 323 326 329 327 324 318 318 318 316 313 302 293 292 270 254 251 243 234 225 228 233 236 230 224 221 215 212 209 205 205 200 198 194 192 191 182 187 185 181 181 182 174
318 322 326 327 325 325 322 314 316 316 317 310 302 302 288 263 260 263 249 241 234 232 233 233 232 232 220 212 209 207 202 198 196 192 190 189 186 186 182 179 180 173 165
319 320 322 322 325 327 328 323 319 320 326 330 314 300 300 289 271 269 260 243 239 239 231 229 236 244 224 212 209 203 195 194 192 189 189 189 186 183 180 175 175 171 170
315 317 319 321 323 325 326 328 328 330 341 347 331 316 316 307 295 291 286 264 258 259 251 242 243 248 233 218 214 202 193 190 189 186 185 184 183 180 178 174 174 174 176
310 314 316 315 317 320 322 325 324 330 341 342 335 331 326 317 308 302 315 310 286 281 279 269 256 251 235 221 213 199 191 187 186 181 180 178 179 175 175 172 170 176 180
305 308 311 312 313 317 320 323 326 332 337 338 337 336 335 324 329 330 330 319 309 290 277 272 266 259 233 214 203 187 188 184 181 179 179 176 176 176 168 163 167 176 185
292 296 299 302 308 313 316 322 324 326 334 336 333 329 335 334 333 330 322 317 308 296 285 276 270 278 263 230 202 179 172 173 174 174 175 174 177 172 163 164 165 166 174
294 298 304 308 310 313 319 323 321 324 325 322 321 325 330 327 320 312 307 308 302 296 297 304 304 287 275 260 205 172 159 163 167 171 176 177 176 173 166 169 170 173 172
294 300 306 307 304 312 323 321 320 314 305 307 314 319 317 311 304 310 307 305 306 305 306 320 318 302 276 274 214 181 162 167 165 173 179 181 171 172 172 173 178 173 158
299 304 304 302 303 309 317 316 310 306 308 311 312 311 310 310 315 311 308 304 307 311 322 347 350 351 331 317 233 198 177 170 167 172 176 172 170 171 171 172 164 153 144
294 299 297 300 306 311 313 307 304 310 312 306 303 303 307 304 298 295 305 314 316 318 317 347 336 331 333 322 323 207 166 166 166 161 157 160 164 166 168 162 155 149 147
293 298 302 305 306 308 306 297 300 307 309 301 299 298 302 304 301 296 293 296 307 307 311 306 305 313 311 323 11 188 153 144 141 136 139 138 148 154 151 150 151 151 157
291 292 292 292 293 301 303 303 303 308 307 297 297 300 298 300 313 321 308 291 275 268 276 269 267 267 283 284 296 287 217 178 163 140 129 130 141 144 145 144 143 147 148
292 294 292 290 294 300 301 301 302 298 297 300 300 299 299 303 307 318 328 326 301 310 306 288 275 273 274 285 289 281 235 179 155 140 146 156 162 168 166 160 154 156 156